Location: Unspecified
(0.0000°N, 0.0000°E)
Time: 23:55:25
(UTC+02:00)

Vanguard 1 - Visible Passes

Search period start: 25 August 2016 00:00
Search period end: 04 September 2016 00:00
Orbit: 649 x 3835 km, 34.3° (Epoch: 25 August)

Date Brightness Start Highest point End Pass type
(mag) Time Alt. Az. Time Alt. Az. Time Alt. Az.
25 Aug 13.9 20:11:37 10° WNW 20:29:49 28° NNW 20:45:47 10° NNE visible
25 Aug 13.6 22:54:46 10° NNW 23:01:55 13° N 23:07:53 10° NNE visible
26 Aug 13.9 20:36:38 10° WNW 20:52:57 23° NNW 21:06:57 10° NNE visible
26 Aug 13.5 23:18:41 10° NNW 23:25:20 13° N 23:30:18 11° NNE visible
27 Aug 13.8 21:02:11 10° NW 21:16:26 19° NNW 21:28:24 10° NNE visible
27 Aug 13.4 23:41:03 10° NNW 23:48:32 14° N 23:49:51 14° N visible
28 Aug 13.7 21:27:45 10° NW 21:40:09 17° N 21:50:23 10° NNE visible
29 Aug 13.4 00:02:32 10° NNW 00:09:25 16° N 00:09:25 16° N visible
29 Aug 13.6 21:52:38 10° NW 22:03:55 16° N 22:13:03 10° NNE visible
30 Aug 13.4 00:23:42 10° NNW 00:28:58 17° N 00:28:58 17° N visible
30 Aug 13.4 22:16:22 10° NNW 22:27:36 17° N 22:35:51 11° NE visible
31 Aug 13.5 00:44:46 10° NNW 00:48:32 17° NNW 00:48:32 17° NNW visible
31 Aug 13.9 20:02:12 10° NW 20:17:26 20° NNW 20:31:15 10° NNE visible
31 Aug 13.3 22:38:59 10° NNW 22:50:59 19° N 22:55:26 16° NNE visible
01 Sep 13.6 01:05:52 10° NW 01:08:07 14° NNW 01:08:07 14° NNW visible
01 Sep 13.8 20:27:10 10° NW 20:41:25 19° N 20:53:51 10° NNE visible
01 Sep 13.2 23:00:52 10° NNW 23:14:04 22° NNE 23:15:01 22° NNE visible
02 Sep 13.8 01:27:07 10° NW 01:27:43 11° NW 01:27:43 11° NW visible
02 Sep 13.7 20:51:31 10° NW 21:05:27 18° N 21:17:05 10° NE visible
02 Sep 13.1 23:22:23 10° NNW 23:34:37 26° N 23:34:37 26° N visible
03 Sep 13.5 21:14:55 10° NW 21:29:18 20° N 21:40:43 10° NE visible
